Weather History for KHTS - April, 2014

Change the Weather History Date:

Wednesday, April 2, 2014

  Actual Average Record
Temperature  
Mean Temperature 62 °F 52 °F  
Max Temperature 73 °F 63 °F 88 °F (2010)
Min Temperature 50 °F 41 °F 20 °F (1923)
Degree Days  
Heating Degree Days 3 14  
Month to date heating degree days 7 28  
Since 1 July heating degree days 4508 4125  
Cooling Degree Days 0 1  
Month to date cooling degree days 0 1  
Year to date cooling degree days 0 6  
Growing Degree Days 12 (Base 50)    
Moisture  
Dew Point 41 °F    
Average Humidity 56    
Maximum Humidity 77    
Minimum Humidity 34    
Precipitation  
Precipitation T in 0.12 in 1.16 in (1956)
Month to date precipitation T 0.23  
Year to date precipitation 10.47 10.17  
Snow  
Snow 0.00 in - - ()
Month to date snowfall 0.0  
Since 1 September snowfall 36.8  
Snow Depth 0.00 in    
Sea Level Pressure  
Sea Level Pressure 30.05 in    
Wind  
Wind Speed 6 mph (NNE)    
Max Wind Speed 14 mph    
Max Gust Speed 20 mph    
Visibility 10 miles    
Events Rain    
T = Trace of Precipitation, MM = Missing Value Source: NWS Daily Summary

Daily Weather History Graph

Daily Weather History Graph

Search for Another Location

Airport or City:

Trip Planner

Search our weather history database for the weather conditions in past years. The results will help you decide how hot, cold, wet, or windy it might be!

Date:

Astronomy

Apr. 02, 2014 Rise Set
Actual Time 7:13 AM EDT 7:54 PM EDT
Civil Twilight 6:46 AM EDT 8:21 PM EDT
Nautical Twilight 6:15 AM EDT 8:52 PM EDT
Astronomical Twilight 5:43 AM EDT 9:25 PM EDT
Moon 8:59 AM EDT (4/2) 11:13 PM EDT (4/2)
Length of Visible Light 13h 34m
Length of Day
12h 40m
Waxing Crescent, 10% of the Moon is Illuminated
Apr 2
Waxing Crescent
Apr 7
First Quarter
Apr 15
Full
Apr 22
Last Quarter
Apr 29
New

Hourly Weather History & Observations

Time (EDT) Temp. Dew Point Humidity Pressure Visibility Wind Dir Wind Speed Gust Speed Precip Events Conditions
12:51 AM 64.9 °F 37.0 °F 36% 30.01 in 10.0 mi WNW 6.9 mph - N/A   Partly Cloudy
1:51 AM 63.0 °F 39.0 °F 41% 30.00 in 10.0 mi WNW 4.6 mph - N/A   Partly Cloudy
2:51 AM 61.0 °F 39.0 °F 44% 30.01 in 10.0 mi NW 4.6 mph - N/A   Clear
3:51 AM 55.9 °F 37.9 °F 51% 30.00 in 10.0 mi Calm Calm - N/A   Clear
4:51 AM 55.0 °F 36.0 °F 49% 30.05 in 10.0 mi North 8.1 mph - N/A   Clear
5:51 AM 54.0 °F 33.1 °F 45% 30.05 in 10.0 mi North 5.8 mph - N/A   Clear
6:51 AM 52.0 °F 33.1 °F 49% 30.08 in 10.0 mi NNE 5.8 mph - N/A   Scattered Clouds
8:51 AM 52.0 °F 37.9 °F 59% 30.13 in 10.0 mi NNE 9.2 mph - N/A   Clear
9:51 AM 55.9 °F 39.9 °F 55% 30.12 in 10.0 mi ENE 6.9 mph - N/A   Clear
10:51 AM 59.0 °F 39.0 °F 48% 30.12 in 10.0 mi NE 6.9 mph 17.3 mph N/A   Clear
11:51 AM 60.1 °F 39.9 °F 47% 30.12 in 10.0 mi NNE 5.8 mph - N/A   Clear
12:51 PM 64.0 °F 39.9 °F 41% 30.11 in 10.0 mi Variable 3.5 mph - N/A   Partly Cloudy
1:51 PM 66.2 °F 39.2 °F 37% 30.09 in 10.0 mi SE 4.6 mph - N/A   Scattered Clouds
2:51 PM 71.1 °F 41.0 °F 34% 30.03 in 10.0 mi Variable 3.5 mph - N/A   Clear
3:51 PM 71.1 °F 42.1 °F 35% 30.03 in 10.0 mi NNW 6.9 mph - N/A   Partly Cloudy
4:51 PM 70.0 °F 43.0 °F 38% 30.02 in 10.0 mi North 9.2 mph - N/A   Clear
5:51 PM 68.0 °F 43.0 °F 40% 30.02 in 10.0 mi NNE 6.9 mph - N/A   Overcast
6:51 PM 64.9 °F 43.0 °F 45% 30.04 in 10.0 mi North 8.1 mph - N/A   Overcast
7:51 PM 64.0 °F 43.0 °F 46% 30.03 in 10.0 mi NE 6.9 mph - N/A   Scattered Clouds
8:51 PM 62.1 °F 44.1 °F 52% 30.08 in 10.0 mi North 10.4 mph - 0.00 in Rain Light Rain
9:51 PM 57.0 °F 48.0 °F 72% 30.06 in 10.0 mi ENE 8.1 mph - 0.00 in Rain Light Rain
10:51 PM 55.9 °F 48.9 °F 77% 30.04 in 10.0 mi East 5.8 mph - 0.00 in   Mostly Cloudy
11:51 PM 55.9 °F 48.0 °F 75% 30.03 in 10.0 mi NNE 5.8 mph - N/A   Mostly Cloudy